Waarnemingen

Advertentie
Mijn weer
Jerez De La Frontera aeropuert, Spanje (8451): temperatuur & dauwpunt: 17.05.2018 20:00:00 - 23.05.2018 20:00:00 (CEST)Jerez De La Frontera aeropuert, Spanje (8451): windsnelheid: 17.05.2018 20:00:00 - 23.05.2018 20:00:00 (CEST)Jerez De La Frontera aeropuert, Spanje (8451): windrichting: 17.05.2018 20:00:00 - 23.05.2018 20:00:00 (CEST)Jerez De La Frontera aeropuert, Spanje (8451): luchtdruk: 17.05.2018 20:00:00 - 23.05.2018 20:00:00 (CEST)Jerez De La Frontera aeropuert, Spanje (8451): zicht: 17.05.2018 20:00:00 - 23.05.2018 20:00:00 (CEST)
Datum & Tijd tt [°C] td [°C] ff [km/u] ff [kn] dd ppp [hPa] vv [km]
23.05.2018 20:00:00 - - - - - - -
23.05.2018 19:00:00 23,5 16,3 15 8 WNW 1013,5 10
23.05.2018 18:00:00 26,2 16,7 15 8 W 1013,2 10
23.05.2018 17:00:00 27,2 16,9 18 10 W 1013,1 30
23.05.2018 16:00:00 29,0 12,9 9 5 OZO 1013,5 10
23.05.2018 15:00:00 27,3 13,8 5 3 O 1014,2 10
23.05.2018 14:00:00 26,0 13,4 11 6 ZO 1014,7 30
23.05.2018 13:00:00 24,4 14,3 4 2 O 1015,6 10
23.05.2018 12:00:00 22,8 14,4 9 5 Z 1015,5 10
23.05.2018 11:00:00 20,6 14,4 4 2 Z 1015,4 40
23.05.2018 10:00:00 18,9 14,8 0 0 N 1015,4 10
23.05.2018 09:00:00 16,2 14,7 0 0 N 1015,3 10
23.05.2018 08:00:00 13,3 12,8 2 1 NNO 1015,0 25
23.05.2018 07:00:00 12,8 12,2 0 0 N 1014,5 10
23.05.2018 06:00:00 12,6 12,0 0 0 N 1014,3 10
23.05.2018 05:00:00 13,1 12,1 0 0 N 1014,2 10
23.05.2018 04:00:00 13,8 12,5 2 1 NO 1014,5 10
23.05.2018 03:00:00 14,4 13,1 0 0 N 1015,1 10
23.05.2018 02:00:00 15,7 13,9 4 2 WZW 1015,4 10
23.05.2018 01:00:00 16,3 14,5 5 3 Z 1015,6 10
23.05.2018 00:00:00 16,3 14,0 8 4 ZZW 1015,4 10
22.05.2018 23:00:00 17,3 14,1 0 0 N 1014,6 10
22.05.2018 22:00:00 18,6 14,3 5 3 WNW 1014,0 10
22.05.2018 21:00:00 21,6 14,7 11 6 WNW 1013,7 10
22.05.2018 20:00:00 23,3 14,8 11 6 W 1013,7 30
22.05.2018 19:00:00 23,9 14,9 16 9 W 1013,6 10
22.05.2018 18:00:00 24,4 15,1 16 9 W 1013,6 10
22.05.2018 17:00:00 26,3 15,6 21 11 W 1013,8 10
22.05.2018 16:00:00 26,9 13,7 8 4 ZW 1014,2 10
22.05.2018 15:00:00 25,4 14,0 5 3 NNW 1014,6 10
22.05.2018 14:00:00 24,2 13,8 9 5 WZW 1015,2 25
22.05.2018 13:00:00 22,8 14,3 4 2 - 1015,5 10
22.05.2018 12:00:00 21,3 14,0 4 2 - 1015,6 10
22.05.2018 11:00:00 18,5 13,0 2 1 - 1015,6 10
22.05.2018 10:00:00 17,9 13,1 4 2 - 1015,4 10
22.05.2018 09:00:00 16,7 12,9 5 3 NO 1015,2 10
22.05.2018 08:00:00 15,5 13,2 2 1 ONO 1015,0 15
22.05.2018 07:00:00 15,3 13,3 5 3 ONO 1014,5 10
22.05.2018 06:00:00 15,6 13,1 5 3 N 1014,4 10
22.05.2018 05:00:00 15,9 13,0 8 4 W 1014,4 10
22.05.2018 04:00:00 15,7 12,7 4 2 ZZW 1014,3 10
22.05.2018 03:00:00 16,4 12,8 8 4 ZW 1014,5 10
22.05.2018 02:00:00 16,5 13,0 9 5 ZW 1014,9 10
22.05.2018 01:00:00 16,3 13,0 9 5 ZW 1015,1 10
22.05.2018 00:00:00 15,8 12,9 13 7 ZZW 1015,2 10
21.05.2018 23:00:00 16,8 13,3 15 8 ZZW 1014,9 12
21.05.2018 22:00:00 16,4 13,4 11 6 ZW 1014,3 10
21.05.2018 21:00:00 18,2 13,7 16 9 ZW 1013,7 10
21.05.2018 20:00:00 20,1 14,1 21 11 ZW 1013,2 10
21.05.2018 19:00:00 21,8 14,1 22 12 ZW 1013,0 10
21.05.2018 18:00:00 23,4 14,9 24 13 ZW 1012,4 10
21.05.2018 17:00:00 25,3 14,1 24 13 ZW 1012,3 30
21.05.2018 16:00:00 24,9 14,9 21 11 ZW 1012,2 10
21.05.2018 15:00:00 25,4 14,5 16 9 ZW 1012,4 10
21.05.2018 14:00:00 25,0 14,4 13 7 ZW 1013,0 15
21.05.2018 13:00:00 24,3 14,5 16 9 ZZW 1013,3 10
21.05.2018 12:00:00 23,0 14,6 15 8 Z 1013,3 10
21.05.2018 11:00:00 20,6 14,6 13 7 ZZW 1013,3 17
21.05.2018 10:00:00 19,4 13,8 13 7 Z 1013,1 10
21.05.2018 09:00:00 16,8 14,6 2 1 - 1012,7 10
21.05.2018 08:00:00 14,1 13,6 0 0 N 1012,6 20
21.05.2018 07:00:00 13,7 13,2 4 2 ONO 1012,3 10
21.05.2018 06:00:00 14,0 13,2 0 0 N 1012,2 10
21.05.2018 05:00:00 14,4 13,3 4 2 - 1012,0 10
21.05.2018 04:00:00 15,7 13,6 0 0 N 1012,4 10
21.05.2018 03:00:00 16,2 14,4 4 2 OZO 1012,6 10
21.05.2018 02:00:00 16,4 14,2 2 1 O 1013,1 10
21.05.2018 01:00:00 16,6 14,7 4 2 NNO 1013,4 10
21.05.2018 00:00:00 16,5 14,5 0 0 N 1013,5 10
20.05.2018 23:00:00 16,6 14,3 4 2 O 1013,3 15
20.05.2018 22:00:00 16,9 14,5 5 3 O 1012,7 10
20.05.2018 21:00:00 18,4 14,7 5 3 ZO 1012,7 10
20.05.2018 20:00:00 18,9 13,9 11 6 OZO 1012,6 10
20.05.2018 19:00:00 18,8 13,0 9 5 O 1012,8 10
20.05.2018 18:00:00 19,2 14,3 21 11 ONO 1013,7 10
20.05.2018 17:00:00 21,7 14,9 22 12 W 1012,8 10
20.05.2018 16:00:00 25,7 14,8 22 12 W 1011,8 10
20.05.2018 15:00:00 26,2 13,3 8 4 WNW 1012,4 10
20.05.2018 14:00:00 26,6 14,1 8 4 ONO 1013,3 25
20.05.2018 13:00:00 25,4 13,8 9 5 - 1014,0 10
20.05.2018 12:00:00 24,8 14,3 4 2 N 1014,3 10
20.05.2018 11:00:00 22,8 13,1 4 2 W 1014,3 10
20.05.2018 10:00:00 20,5 13,1 0 0 N 1014,7 10
20.05.2018 09:00:00 16,4 13,0 2 1 - 1014,8 10
20.05.2018 08:00:00 12,8 11,4 0 0 N 1014,6 40
20.05.2018 07:00:00 11,6 10,5 0 0 N 1014,4 10
20.05.2018 06:00:00 12,0 11,2 4 2 NO 1014,5 10
20.05.2018 05:00:00 12,0 10,8 0 0 N 1014,6 10
20.05.2018 04:00:00 12,9 11,5 2 1 ONO 1015,1 10
20.05.2018 03:00:00 13,2 11,9 4 2 NNO 1015,6 10
20.05.2018 02:00:00 14,7 12,6 0 0 N 1015,8 10
20.05.2018 01:00:00 15,5 12,8 5 3 OZO 1015,9 10
20.05.2018 00:00:00 16,1 12,9 9 5 NNW 1016,3 10
19.05.2018 23:00:00 16,8 12,8 8 4 Z 1015,3 25
19.05.2018 22:00:00 18,3 13,2 8 4 O 1015,4 10
19.05.2018 21:00:00 18,9 13,3 13 7 N 1015,3 10
19.05.2018 20:00:00 22,3 12,7 21 11 ONO 1014,8 25
19.05.2018 19:00:00 25,3 11,5 16 9 ZZO 1013,9 10
19.05.2018 18:00:00 27,3 12,5 13 7 Z 1013,7 10
19.05.2018 17:00:00 27,3 11,7 16 9 ZZO 1013,9 10
19.05.2018 16:00:00 27,5 12,0 15 8 Z 1014,3 10
19.05.2018 15:00:00 27,7 12,3 13 7 Z 1014,5 10
19.05.2018 14:00:00 26,8 12,4 11 6 O 1015,0 10
19.05.2018 13:00:00 26,2 10,8 18 10 OZO 1015,3 10
19.05.2018 12:00:00 25,6 11,0 21 11 OZO 1015,3 10
19.05.2018 11:00:00 24,1 10,7 18 10 OZO 1015,1 40
19.05.2018 10:00:00 20,5 12,1 4 2 N 1015,0 10
19.05.2018 09:00:00 16,9 13,1 0 0 N 1014,7 10
19.05.2018 08:00:00 12,5 9,9 0 0 N 1014,5 40
19.05.2018 07:00:00 11,5 9,4 2 1 - 1014,0 10
19.05.2018 06:00:00 12,6 9,4 4 2 O 1014,0 10
19.05.2018 05:00:00 12,9 10,6 5 3 N 1014,5 10
19.05.2018 04:00:00 12,8 10,5 0 0 N 1014,6 10
19.05.2018 03:00:00 12,6 10,2 8 4 N 1014,9 10
19.05.2018 02:00:00 14,8 9,2 2 1 - 1015,1 10
19.05.2018 01:00:00 16,2 9,2 8 4 NNO 1015,4 10
19.05.2018 00:00:00 17,6 9,0 13 7 ONO 1015,3 10
18.05.2018 23:00:00 16,9 9,7 8 4 ONO 1014,8 25
18.05.2018 22:00:00 19,3 8,8 4 2 - 1014,2 10
18.05.2018 21:00:00 22,1 8,2 13 7 ZO 1013,5 10
18.05.2018 20:00:00 23,7 8,8 18 10 ZO 1013,2 50
18.05.2018 19:00:00 25,3 10,0 21 11 ZZO 1012,9 10
18.05.2018 18:00:00 26,6 9,7 18 10 ZO 1012,9 10
18.05.2018 17:00:00 26,9 11,1 18 10 ZZO 1013,0 40
18.05.2018 16:00:00 27,4 11,2 16 9 ZO 1013,4 10
18.05.2018 15:00:00 26,7 10,9 9 5 Z 1013,7 10
18.05.2018 14:00:00 26,9 10,6 13 7 OZO 1014,5 60
18.05.2018 13:00:00 26,3 11,4 16 9 OZO 1014,9 10
18.05.2018 12:00:00 24,8 11,3 11 6 ONO 1015,2 10
18.05.2018 11:00:00 22,8 12,6 9 5 NO 1015,3 60
18.05.2018 10:00:00 19,6 14,4 4 2 NNW 1014,9 10
18.05.2018 09:00:00 16,3 13,2 4 2 Z 1014,7 10
18.05.2018 08:00:00 12,8 11,0 0 0 N 1014,6 10
18.05.2018 07:00:00 12,1 10,5 0 0 N 1014,3 10
18.05.2018 06:00:00 12,6 11,0 0 0 N 1014,0 10
18.05.2018 05:00:00 12,8 10,7 8 4 NNW 1014,0 10
18.05.2018 04:00:00 13,3 10,7 5 3 ONO 1013,9 10
18.05.2018 03:00:00 13,8 11,1 5 3 O 1014,6 10
18.05.2018 02:00:00 14,9 11,7 8 4 OZO 1014,9 10
18.05.2018 01:00:00 15,5 11,7 2 1 ONO 1015,1 10
18.05.2018 00:00:00 17,7 12,2 11 6 ZO 1014,7 10
17.05.2018 23:00:00 18,0 12,2 4 2 - 1014,0 10
17.05.2018 22:00:00 19,1 12,1 9 5 Z 1013,3 10
17.05.2018 21:00:00 21,1 13,0 16 9 Z 1012,9 10
17.05.2018 20:00:00 23,0 13,4 22 12 ZZO 1012,4 10

tt = temperatuur
td = dauwpunt
ff = windsnelheid
dd = windrichting
ppp = luchtdruk
vv = zicht

Weerstations in de omgeving